Date String (YYYY-MM-DD hh:mm:ss) UTC,Instrument flags,absolute air pressure of the measurement (hPa),sample flow rate (lpm),inlet stack bypass flow (lpm),air temperature of the measurement (°C),ambient temperature measured by the external sensor (°C),aerosol sample conditioner tube jacket temperature (°C),OPC LED temperature (°C),internal box temperature (°C),relative humidity of the measurement (%),span deviation,mass concentration of particles derived from Lorenz-Mie calculation of OPC scattering (μg/m³),mass concentration of particles derived from Lorenz-Mie calculation of OPC scattering (μg/m³),mass concentration of particles derived from Lorenz-Mie calculation of OPC scattering (μg/m³)
DateTimeUTC,F1_M11,P_M11,Q1_M11,Q2_M11,T1_M11,T2_M11,T3_M11,T4_M11,T5_M11,U1_M11,ZSPAN_M11,X0_M11,X2_M11,X1_M11
2023-12-13 13:00:00,SystemResetWarning,0838.8,5.00,000.00,018.8,017.8,000.0,027.1,020.0,21.3,0000.0,0011.33,0006.82,0006.29
2023-12-13 13:01:00,SystemResetWarning,0838.8,5.00,000.00,018.8,017.8,000.0,027.1,020.0,21.3,0000.0,0011.32,0006.82,0006.32
2023-12-13 13:02:00,SystemResetWarning,0838.8,5.00,000.00,018.8,017.8,000.0,027.1,020.0,21.3,0000.0,0010.73,0006.86,0006.35
2023-12-13 13:03:00,SystemResetWarning,0838.8,5.00,000.00,018.8,017.8,000.0,027.1,020.0,21.3,0000.0,0010.96,0006.87,0006.35
2023-12-13 13:04:00,SystemResetWarning,0838.8,5.00,000.00,018.8,017.8,000.0,027.1,020.0,21.3,0000.0,0011.23,0006.91,0006.36
2023-12-13 13:05:00,SystemResetWarning,0838.8,5.00,000.00,018.8,017.8,000.0,027.1,020.0,21.3,0000.0,0011.16,0006.88,0006.35
2023-12-13 13:06:00,SystemResetWarning,0838.8,5.00,000.00,018.8,017.8,000.0,027.1,020.0,21.3,0000.0,0011.20,0006.88,0006.36
2023-12-13 13:07:00,SystemResetWarning,0838.8,5.00,000.00,018.8,017.8,000.0,027.1,020.0,21.3,0000.0,0011.51,0006.89,0006.37
2023-12-13 13:08:00,SystemResetWarning,0838.8,5.00,000.00,018.8,017.8,000.0,027.1,020.0,21.3,0000.0,0011.93,0006.93,0006.37
2023-12-13 13:09:00,SystemResetWarning,0838.8,5.00,000.00,018.8,017.8,000.0,027.1,020.0,21.3,0000.0,0012.60,0006.94,0006.38
2023-12-13 13:10:00,SystemResetWarning,0838.8,5.00,000.00,018.8,017.8,000.0,027.1,020.0,21.3,0000.0,0012.57,0006.91,0006.39
2023-12-13 13:11:00,SystemResetWarning,0838.8,5.00,000.00,018.8,017.8,000.0,027.1,020.0,21.3,0000.0,0012.69,0006.92,0006.41
2023-12-13 13:12:00,SystemResetWarning,0838.8,4.99,000.00,018.8,017.8,000.0,027.1,020.0,21.3,0000.0,0013.64,0006.95,0006.43
2023-12-13 13:13:00,SystemResetWarning,0838.8,5.00,000.00,018.8,017.8,000.0,027.1,020.0,21.4,0000.0,0013.45,0006.95,0006.45
2023-12-13 13:14:00,SystemResetWarning,0838.8,5.00,000.00,018.8,017.8,000.0,027.1,020.0,21.4,0000.0,0013.38,0006.96,0006.48
2023-12-13 13:15:00,SystemResetWarning,0838.8,5.00,000.00,018.8,017.8,000.0,027.1,020.0,21.4,0000.0,0013.57,0006.97,0006.51
2023-12-13 13:16:00,SystemResetWarning,0838.8,5.00,000.00,018.8,017.8,000.0,027.1,020.0,21.4,0000.0,0013.69,0007.03,0006.56
2023-12-13 13:17:00,SystemResetWarning,0838.8,5.00,000.00,018.8,017.8,000.0,027.1,020.0,21.4,0000.0,0013.68,0007.06,0006.58
2023-12-13 13:18:00,SystemResetWarning,0838.8,5.00,000.00,018.8,017.8,000.0,027.1,020.0,21.4,0000.0,0013.56,0007.09,0006.60
2023-12-13 13:19:00,SystemResetWarning,0838.8,5.00,000.00,018.8,017.8,000.0,027.1,020.0,21.4,0000.0,0013.20,0007.13,0006.63
2023-12-13 13:20:00,SystemResetWarning,0838.8,4.99,000.00,018.8,017.8,000.0,027.1,020.0,21.4,0000.0,0012.19,0007.14,0006.66
2023-12-13 13:21:00,SystemResetWarning,0838.8,5.00,000.00,018.8,017.8,000.0,027.1,020.0,21.5,0000.0,0011.89,0007.16,0006.69
2023-12-13 13:22:00,SystemResetWarning,0838.8,5.00,000.00,018.8,017.8,000.0,027.1,020.0,21.5,0000.0,0011.68,0007.16,0006.72
2023-12-13 13:23:00,SystemResetWarning,0838.8,5.00,000.00,018.8,017.8,000.0,027.1,020.0,21.5,0000.0,0010.73,0007.15,0006.73
2023-12-13 13:24:00,SystemResetWarning,0838.8,5.00,000.00,018.8,017.8,000.0,027.1,020.0,21.5,0000.0,0010.98,0007.16,0006.74
2023-12-13 13:25:00,SystemResetWarning,0838.8,5.00,000.00,018.8,017.8,000.0,027.1,020.0,21.5,0000.0,0011.28,0007.22,0006.77
2023-12-13 13:26:00,SystemResetWarning,0838.8,5.00,000.00,018.8,017.8,000.0,027.1,020.0,21.5,0000.0,0010.93,0007.23,0006.79
2023-12-13 13:27:00,SystemResetWarning,0838.8,5.00,000.00,018.8,017.8,000.0,027.1,020.0,21.5,0000.0,0010.88,0007.24,0006.80
2023-12-13 13:28:00,SystemResetWarning,0838.8,4.99,000.00,018.8,017.8,000.0,027.1,020.0,21.5,0000.0,0010.95,0007.25,0006.82
2023-12-13 13:29:00,SystemResetWarning,0838.8,5.00,000.00,018.8,017.8,000.0,027.1,020.0,21.5,0000.0,0010.96,0007.26,0006.83
2023-12-13 13:30:00,SystemResetWarning,0838.8,5.00,000.00,018.8,017.8,000.0,027.1,020.0,21.5,0000.0,0010.92,0007.25,0006.85
2023-12-13 13:31:00,SystemResetWarning,0838.8,5.00,000.00,018.8,017.8,000.0,027.1,020.0,21.5,0000.0,0011.13,0007.30,0006.86
2023-12-13 13:32:00,SystemResetWarning,0838.8,5.00,000.00,018.8,017.8,000.0,027.1,020.0,21.5,0000.0,0011.49,0007.32,0006.86
2023-12-13 13:33:00,SystemResetWarning,0838.8,5.00,000.00,018.8,017.8,000.0,027.1,020.0,21.5,0000.0,0012.06,0007.34,0006.87
2023-12-13 13:34:00,SystemResetWarning,0838.9,4.99,000.00,018.8,017.8,000.0,027.1,020.0,21.5,0000.0,0012.02,0007.36,0006.89
2023-12-13 13:35:00,SystemResetWarning,0838.9,5.00,000.00,018.8,017.8,000.0,027.1,020.0,21.5,0000.0,0011.80,0007.40,0006.91
2023-12-13 13:36:00,SystemResetWarning,0838.9,5.00,000.00,018.8,017.8,000.0,027.1,020.0,21.5,0000.0,0011.49,0007.41,0006.93
2023-12-13 13:37:00,SystemResetWarning,0838.9,5.00,000.00,018.8,017.8,000.0,027.1,020.0,21.5,0000.0,0011.31,0007.44,0006.95
2023-12-13 13:38:00,SystemResetWarning,0838.9,5.00,000.00,018.8,017.8,000.0,027.1,020.0,21.5,0000.0,0011.44,0007.49,0006.98
2023-12-13 13:39:00,SystemResetWarning,0838.9,5.00,000.00,018.8,017.8,000.0,027.1,020.0,21.5,0000.0,0011.42,0007.53,0007.01
2023-12-13 13:40:00,SystemResetWarning,0838.9,5.00,000.00,018.8,017.8,000.0,027.1,020.0,21.5,0000.0,0011.48,0007.61,0007.07
2023-12-13 13:41:00,SystemResetWarning,0838.9,5.00,000.00,018.8,017.8,000.0,027.1,020.0,21.5,0000.0,0011.48,0007.64,0007.12
2023-12-13 13:42:00,SystemResetWarning,0839.0,5.00,000.00,018.8,017.8,000.0,027.1,020.0,21.5,0000.0,0011.35,0007.69,0007.18
2023-12-13 13:43:00,SystemResetWarning,0839.0,5.00,000.00,018.8,017.8,000.0,027.1,020.0,21.5,0000.0,0011.16,0007.75,0007.27
2023-12-13 13:44:00,SystemResetWarning,0839.1,5.01,000.00,018.8,017.8,000.0,027.1,020.0,21.6,0000.0,0010.58,0007.79,0007.32
2023-12-13 13:45:00,SystemResetWarning,0839.1,5.00,000.00,018.8,017.8,000.0,027.1,020.0,21.6,0000.0,0010.57,0007.82,0007.34
2023-12-13 13:46:00,SystemResetWarning,0839.1,5.00,000.00,018.8,017.8,000.0,027.1,020.0,21.6,0000.0,0010.56,0007.83,0007.34
2023-12-13 13:47:00,SystemResetWarning,0839.1,5.00,000.00,018.8,017.8,000.0,027.1,020.0,21.6,0000.0,0010.51,0007.83,0007.35
2023-12-13 13:48:00,SystemResetWarning,0839.1,5.00,000.00,018.8,017.8,000.0,027.1,020.0,21.6,0000.0,0010.63,0007.85,0007.36
2023-12-13 13:49:00,SystemResetWarning,0839.1,5.00,000.00,018.8,017.8,000.0,027.1,020.0,21.6,0000.0,0011.22,0007.85,0007.36
2023-12-13 13:50:00,SystemResetWarning,0838.9,5.00,000.00,018.8,017.8,000.0,027.1,020.0,21.6,0000.0,0011.35,0007.83,0007.35
2023-12-13 13:51:00,SystemResetWarning,0838.8,5.01,000.00,018.8,017.8,000.0,027.1,020.0,21.6,0000.0,0011.22,0007.78,0007.33
2023-12-13 13:52:00,SystemResetWarning,0838.9,5.00,000.00,018.8,017.8,000.0,027.1,020.0,21.6,0000.0,0011.67,0007.77,0007.31
2023-12-13 13:53:00,SystemResetWarning,0838.9,5.00,000.00,018.8,017.8,000.0,027.1,020.0,21.6,0000.0,0011.88,0007.74,0007.29
2023-12-13 13:54:00,SystemResetWarning,0838.9,4.99,000.00,018.8,017.8,000.0,027.1,020.0,21.6,0000.0,0011.87,0007.70,0007.26
2023-12-13 13:55:00,SystemResetWarning,0838.9,4.99,000.00,018.8,017.8,000.0,027.1,020.0,21.6,0000.0,0012.00,0007.74,0007.26
2023-12-13 13:56:00,SystemResetWarning,0838.9,5.00,000.00,018.8,017.8,000.0,027.1,020.0,21.6,0000.0,0012.09,0007.79,0007.29
2023-12-13 13:57:00,SystemResetWarning,0838.9,5.00,000.00,018.8,017.8,000.0,027.1,020.0,21.6,0000.0,0012.15,0007.84,0007.35
2023-12-13 13:58:00,SystemResetWarning,0838.9,5.00,000.00,018.8,017.8,000.0,027.1,020.0,21.6,0000.0,0012.29,0007.92,0007.42
2023-12-13 13:59:00,SystemResetWarning,0838.9,5.00,000.00,018.8,017.8,000.0,027.1,020.0,21.6,0000.0,0012.24,0007.97,0007.46
